Location: Palmerston North
(40.3500°S, 175.6170°E)
Time: 10:14:50
(UTC+13:00)

ISS - Pass Details

Date: 25 October 2019
Orbit: 412 x 421 km, 51.6° (Epoch: 22 November)

Event Time Altitude Azimuth Distance (km) Brightness Sun altitude
Rises 22:27:41 0° 233° (SW) 2,385 1.3 -26.6°
Reaches altitude 10° 22:30:45 10° 203° (SSW) 1,522 0.0 -27.0°
Maximum altitude 22:32:24 13° 174° (S) 1,357 -0.7 -27.2°
Enters shadow 22:32:41 13° 169° (S) 1,363 -0.8 -27.3°
